Boise, ID

1:54 AM MST on November 21, 2017 (GMT -0700)
Boise Air Term

Weather History for KBOI - October, 2012

Change the Weather History Date:

Thursday, October 25, 2012

  Actual Average Record
Temperature  
Mean Temperature 41 °F 49 °F  
Max Temperature 49 °F 60 °F 81 °F (1990)
Min Temperature 32 °F 38 °F 21 °F (1919)
Degree Days  
Heating Degree Days 24 16  
Month to date heating degree days 283 281  
Since 1 July heating degree days 300 402  
Cooling Degree Days 0 0  
Month to date cooling degree days 1 7  
Year to date cooling degree days 1274 941  
Moisture  
Dew Point 33 °F    
Average Humidity 73    
Maximum Humidity 100    
Minimum Humidity 46    
Precipitation  
Precipitation 0.00 in 0.03 in 0.32 in (1956)
Month to date precipitation 0.95 0.57  
Year to date precipitation 9.86 8.65  
Snow  
Snow 0.00 in 0.10 in 0.00 in (2006)
Month to date snowfall T 0.1  
Since 1 July snowfall T 0.1  
Snow Depth 0.00 in    
Sea Level Pressure  
Sea Level Pressure 30.29 in    
Wind  
Wind Speed 5 mph (NW)    
Max Wind Speed 22 mph    
Max Gust Speed 28 mph    
Visibility 7 miles    
Events Fog    
T = Trace of Precipitation, MM = Missing Value Source: NWS Daily Summary

Daily Weather History Graph

Daily Weather History Graph

Search for Another Location

Airport or City:

Trip Planner

Search our weather history database for the weather conditions in past years. The results will help you decide how hot, cold, wet, or windy it might be!

Date:

Astronomy

Oct. 25, 2012 Rise Set
Actual Time 8:12 AM MDT 6:44 PM MDT
Civil Twilight 7:42 AM MDT 7:14 PM MDT
Nautical Twilight 7:09 AM MDT 7:47 PM MDT
Astronomical Twilight 6:36 AM MDT 8:20 PM MDT
Moon 4:38 PM MDT (10/25) 4:06 AM MDT (10/25)
Length of Visible Light 11h 31m
Length of Day
10h 32m
Waxing Gibbous, 85% of the Moon is Illuminated
Oct 25
Waxing Gibbous
Oct 29
Full
Nov 6
Last Quarter
Nov 13
New
Nov 20
First Quarter

Hourly Weather History & Observations

Time (MDT) Temp. Windchill Dew Point Humidity Pressure Visibility Wind Dir Wind Speed Gust Speed Precip Events Conditions
12:53 AM 36.0 °F - 33.1 °F 89% 30.17 in 10.0 mi Calm Calm - N/A   Overcast
1:53 AM 37.0 °F 34.5 °F 34.0 °F 89% 30.17 in 10.0 mi East 3.5 mph - N/A   Mostly Cloudy
2:53 AM 36.0 °F - 35.1 °F 97% 30.19 in 10.0 mi Calm Calm - N/A   Overcast
3:53 AM 36.0 °F 32.1 °F 34.0 °F 93% 30.20 in 10.0 mi West 4.6 mph - N/A   Overcast
4:16 AM 35.6 °F - 33.8 °F 93% 30.17 in 10.0 mi Calm Calm - N/A   Overcast
4:35 AM 35.6 °F - 33.8 °F 93% 30.17 in 10.0 mi Calm Calm - N/A   Overcast
4:48 AM 35.6 °F - 33.8 °F 93% 30.17 in 10.0 mi Calm Calm - N/A   Overcast
4:53 AM 35.1 °F - 33.1 °F 92% 30.22 in 10.0 mi Calm Calm - N/A   Overcast
5:20 AM 35.6 °F - 33.8 °F 93% 30.18 in 10.0 mi Calm Calm - N/A   Overcast
5:45 AM 35.6 °F - 33.8 °F 93% 30.19 in 10.0 mi Calm Calm - N/A   Overcast
5:53 AM 36.0 °F - 34.0 °F 93% 30.23 in 10.0 mi Calm Calm - N/A   Overcast
6:23 AM 35.6 °F 32.8 °F 33.8 °F 93% 30.21 in 8.0 mi NNW 3.5 mph - N/A   Mostly Cloudy
6:26 AM 35.6 °F - 33.8 °F 93% 30.21 in 8.0 mi Calm Calm - N/A   Overcast
6:53 AM 36.0 °F - 34.0 °F 93% 30.25 in 6.0 mi Calm Calm - N/A   Overcast
7:24 AM 35.6 °F - 33.8 °F 93% 30.23 in 6.0 mi Calm Calm - N/A   Mostly Cloudy
7:31 AM 33.8 °F - 33.8 °F 100% 30.23 in 1.8 mi Calm Calm - N/A   Mostly Cloudy
7:38 AM 33.8 °F 30.8 °F 33.8 °F 100% 30.23 in 3.0 mi SW 3.5 mph - N/A   Overcast
7:45 AM 33.8 °F - 33.8 °F 100% 30.23 in 0.2 mi Calm Calm - N/A Fog Fog
7:53 AM 34.0 °F - 33.1 °F 96% 30.28 in 0.2 mi Calm Calm - N/A Fog Fog
8:23 AM 33.8 °F - 33.8 °F 100% 30.25 in 0.2 mi Calm Calm - N/A Fog Fog
8:42 AM 33.8 °F - 33.8 °F 100% 30.25 in 0.2 mi Calm Calm - N/A Fog Fog
8:53 AM 34.0 °F - 33.1 °F 96% 30.31 in 0.2 mi Calm Calm - N/A Fog Fog
9:18 AM 33.8 °F - 33.8 °F 100% 30.27 in 0.2 mi Calm Calm - N/A Fog Fog
9:53 AM 33.8 °F 30.8 °F 33.8 °F 100% 30.29 in 0.2 mi West 3.5 mph - N/A Fog Fog
10:00 AM 35.6 °F 32.8 °F 33.8 °F 93% 30.29 in 0.2 mi West 3.5 mph - N/A Fog Fog
10:49 AM 35.6 °F - 35.6 °F 100% 30.30 in 0.8 mi Calm Calm - N/A   Mist
10:53 AM 36.0 °F 33.3 °F 35.1 °F 97% 30.35 in 1.0 mi WNW 3.5 mph - N/A   Mist
10:54 AM 35.6 °F 32.8 °F 35.6 °F 100% 30.30 in 1.5 mi NW 3.5 mph - N/A   Overcast
11:08 AM 37.4 °F 33.8 °F 35.6 °F 93% 30.31 in 3.0 mi NW 4.6 mph - N/A   Mostly Cloudy
11:13 AM 37.4 °F 32.8 °F 35.6 °F 93% 30.31 in 3.0 mi NW 5.8 mph - N/A   Mostly Cloudy
11:37 AM 39.2 °F 34.2 °F 35.6 °F 87% 30.31 in 10.0 mi WNW 6.9 mph - N/A   Partly Cloudy
11:53 AM 41.0 °F 36.4 °F 36.0 °F 82% 30.35 in 10.0 mi WNW 6.9 mph - N/A   Clear
12:53 PM 44.1 °F 38.6 °F 34.0 °F 68% 30.36 in 10.0 mi WNW 10.4 mph - N/A   Scattered Clouds
1:53 PM 45.0 °F 39.3 °F 34.0 °F 65% 30.36 in 10.0 mi WNW 11.5 mph - N/A   Scattered Clouds
2:53 PM 46.9 °F - 34.0 °F 61% 30.36 in 10.0 mi WNW 12.7 mph 19.6 mph N/A   Scattered Clouds
3:53 PM 48.0 °F - 30.9 °F 52% 30.37 in 10.0 mi WNW 13.8 mph - N/A   Scattered Clouds
4:53 PM 48.9 °F - 28.9 °F 46% 30.38 in 10.0 mi NW 11.5 mph - N/A   Clear
5:20 PM 44.6 °F 37.8 °F 30.2 °F 57% 30.36 in 10.0 mi NNE 15.0 mph - N/A   Scattered Clouds
5:53 PM 45.0 °F 41.8 °F 30.0 °F 56% 30.40 in 10.0 mi NE 5.8 mph - N/A   Clear
6:53 PM 43.0 °F 40.3 °F 30.9 °F 62% 30.42 in 10.0 mi North 4.6 mph - N/A   Partly Cloudy
7:53 PM 42.1 °F - 30.9 °F 65% 30.44 in 10.0 mi Calm Calm - N/A   Clear
8:53 PM 41.0 °F - 30.0 °F 65% 30.44 in 10.0 mi Calm Calm - N/A   Clear
9:53 PM 35.1 °F 32.2 °F 28.9 °F 78% 30.46 in 10.0 mi SSE 3.5 mph - N/A   Clear
10:53 PM 35.1 °F 32.2 °F 28.0 °F 76% 30.46 in 10.0 mi ESE 3.5 mph - N/A   Clear